Location: Newark
(48.5667°N, 7.8167°E)
Time: 23:53:48
(UTC+00:00)

X-37B - Pass Details

Date: 10 August 2021
Orbit: 381 x 393 km, 45.0° (Epoch: 29 August)

Event Time Altitude Azimuth Distance (km) Brightness Sun altitude
Exits shadow 02:50:36 23° 242° (WSW) 861 1.7 -12.5°
Maximum altitude 02:52:01 37° 190° (S) 611 1.2 -12.3°
Drops below altitude 10° 02:54:57 10° 121° (ESE) 1,395 3.6 -12.0°
Sets 02:57:06 0° 113° (ESE) 2,247 4.8 -11.7°
